Change the Weather History Date:

Thursday, April 25, 2013

  Actual Average Record
Temperature  
Mean Temperature 36 °F -  
Max Temperature 39 °F 46 °F 61 °F (2005)
Min Temperature 30 °F 29 °F 12 °F (1955)
Degree Days  
Heating Degree Days 30    
Moisture  
Dew Point 17 °F    
Average Humidity 48    
Maximum Humidity 75    
Minimum Humidity 36    
Precipitation  
Precipitation 0.00 in - - ()
Sea Level Pressure  
Sea Level Pressure 29.79 in    
Wind  
Wind Speed 21 mph (North)    
Max Wind Speed 30 mph    
Max Gust Speed 40 mph    
Visibility 10 miles    
Events      
Averages and records for this station are not official NWS values.
T = Trace of Precipitation, MM = Missing Value Source: NWS Daily Summary

Daily Weather History Graph

Daily Weather History Graph

Search for Another Location

Airport or City:

Trip Planner

Search our weather history database for the weather conditions in past years. The results will help you decide how hot, cold, wet, or windy it might be!

Date:

Astronomy

Apr. 25, 2013 Rise Set
Actual Time 6:15 AM AKDT 9:51 PM AKDT
Civil Twilight 5:23 AM AKDT 10:44 PM AKDT
Nautical Twilight 4:07 AM AKDT 12:02 AM AKDT
Astronomical Twilight 2:35 AM AKDT 1:30 AM AKDT
Moon 10:29 PM AKDT (4/25) 6:05 AM AKDT (4/25)
Length of Visible Light 17h 20m
Length of Day
15h 36m
Full, 100% of the Moon is Illuminated
Apr 25
Full
May 2
Last Quarter
May 9
New
May 17
First Quarter
May 24
Full

Hourly Weather History & Observations

Time (AKDT) Temp. Windchill Dew Point Humidity Pressure Visibility Wind Dir Wind Speed Gust Speed Precip Events Conditions
12:53 AM 34.0 °F 25.0 °F 27.0 °F 75% 29.87 in 10.0 mi North 12.7 mph - N/A   Clear
1:53 AM 36.0 °F 24.2 °F 21.0 °F 55% 29.86 in 10.0 mi North 24.2 mph 35.7 mph N/A   Overcast
2:53 AM 36.0 °F 25.3 °F 19.9 °F 52% 29.87 in 10.0 mi North 19.6 mph 28.8 mph N/A   Clear
3:53 AM 34.0 °F 21.8 °F 19.9 °F 56% 29.85 in 10.0 mi North 23.0 mph 34.5 mph N/A   Clear
4:53 AM 35.1 °F 23.0 °F 18.0 °F 50% 29.85 in 10.0 mi North 24.2 mph 34.5 mph N/A   Clear
5:53 AM 34.0 °F 21.5 °F 18.0 °F 52% 29.85 in 10.0 mi North 24.2 mph 35.7 mph N/A   Clear
6:53 AM 34.0 °F 21.8 °F 18.0 °F 52% 29.84 in 10.0 mi North 23.0 mph 29.9 mph N/A   Clear
7:53 AM 35.1 °F 23.0 °F 18.0 °F 50% 29.83 in 10.0 mi North 24.2 mph 32.2 mph N/A   Clear
8:53 AM 36.0 °F 23.9 °F 18.0 °F 48% 29.82 in 10.0 mi North 25.3 mph 33.4 mph N/A   Clear
9:53 AM 36.0 °F 24.4 °F 19.0 °F 50% 29.80 in 10.0 mi North 23.0 mph 29.9 mph N/A   Clear
10:53 AM 37.0 °F 26.2 °F 19.0 °F 48% 29.80 in 10.0 mi North 21.9 mph 33.4 mph N/A   Clear
11:53 AM 37.9 °F 28.5 °F 19.0 °F 47% 29.80 in 10.0 mi North 17.3 mph 28.8 mph N/A   Clear
12:53 PM 37.9 °F 26.8 °F 19.0 °F 47% 29.76 in 10.0 mi North 24.2 mph 33.4 mph N/A   Clear
1:53 PM 37.9 °F 26.6 °F 19.0 °F 47% 29.74 in 10.0 mi North 25.3 mph 35.7 mph N/A   Clear
2:53 PM 39.0 °F 28.5 °F 19.0 °F 45% 29.74 in 10.0 mi North 23.0 mph 35.7 mph N/A   Clear
3:53 PM 39.0 °F 28.5 °F 18.0 °F 43% 29.73 in 10.0 mi North 23.0 mph 33.4 mph N/A   Clear
4:53 PM 39.0 °F 27.6 °F 15.1 °F 38% 29.73 in 10.0 mi North 27.6 mph 38.0 mph N/A   Clear
5:53 PM 39.0 °F 29.0 °F 16.0 °F 39% 29.73 in 10.0 mi NNE 20.7 mph 39.1 mph N/A   Clear
6:53 PM 37.9 °F 25.9 °F 12.9 °F 36% 29.73 in 10.0 mi NNE 28.8 mph 39.1 mph N/A   Clear
7:53 PM 37.0 °F 24.5 °F 14.0 °F 39% 29.74 in 10.0 mi NNE 29.9 mph 40.3 mph N/A   Clear
8:53 PM 35.1 °F 22.0 °F 12.9 °F 40% 29.74 in 10.0 mi North 28.8 mph 39.1 mph N/A   Clear
9:53 PM 33.1 °F 20.9 °F 15.1 °F 48% 29.75 in 10.0 mi North 21.9 mph 29.9 mph N/A   Clear
10:53 PM 32.0 °F 20.8 °F 10.4 °F 41% 29.78 in 10.0 mi NNE 17.3 mph - N/A   Clear
11:53 PM 30.0 °F 20.0 °F 12.9 °F 49% 29.79 in 10.0 mi NNE 12.7 mph - N/A   Clear